Location: Battersea Observatory
(44.4318°N, 76.3841°W)
Time: 22:01:29
(UTC-04:00)

Tiros 1 despin weight - Pass Details

Date: 23 January 2022
Orbit: 592 x 639 km, 48.2° (Epoch: 25 May)

Event Time Altitude Azimuth Distance (km) Brightness Sun altitude
Rises 20:39:49 0° 282° (WNW) 2,912 ? -38.5°
Reaches altitude 10° 20:42:10 10° 287° (WNW) 2,012 ? -38.9°
Enters shadow 20:42:40 13° 288° (WNW) 1,828 ? -39.0°
Maximum altitude 20:46:43 54° 4° (N) 775 - -39.7°
Drops below altitude 10° 20:51:19 10° 83° (E) 2,030 - -40.5°
Sets 20:53:42 0° 88° (E) 2,941 - -40.9°
